[[{"header":{"parameterUnit":"m.s-1","parameterCategory":1,"la1":30.2991,"la2":30.254,"lo1":-89.0895,"lo2":-89.0444,"dy":0.0017,"dx":0.0017,"nx":28,"ny":28,"refTime":"2024-06-29T03:00:00:Z","depth":0,"parameterNumber":2,"parameterNumberName":"U-component_of_WINDS"},"data":[0,0,0,0,0,0,0,0,0,0,0,0,0,0,0,0,0,0,0,0,0,0,0,0,0,0,0,0,0,0,0,0,0,0,0,0,0,0,0,0,0,0,0,0,0,0,0,0,0,0,0,0,0,0,0,0,0,0,2.9971,2.9973,0,3.0111,3.0112,3.0114,3.0123,3.0121,3.012,3.0118,3.0258,3.0263,3.0268,0,0,0,0,0,0,0,0,0,0,0,0,0,2.9708,2.9713,2.9971,2.9973,2.9975,3.0111,3.0112,3.0114,3.0123,3.0121,3.0119,3.0117,3.0256,3.0262,3.0269,0,0,0,0,0,0,0,0,0,0,0,0,0,2.9832,2.9715,2.9971,2.9995,2.9999,3.011,3.0113,3.0115,3.0123,3.0121,3.0119,3.0116,3.0254,3.0262,3.0269,3.0365,0,0,3.0293,3.0297,0,0,0,0,0,0,0,0,2.9825,2.9842,2.999,2.9994,2.9998,3.0097,3.0071,3.0199,3.0124,3.0076,3.0118,3.0115,3.0206,3.0218,3.0249,3.0371,3.0377,3.0294,3.0299,3.0302,3.0304,0,0,0,0,0,0,0,2.9817,2.9836,3.0026,2.9992,2.9997,2.9998,3.0013,3.0095,3.0152,3.008,3.0081,3.0098,3.0208,3.0241,3.0252,3.0379,3.0294,3.0301,3.0305,3.0308,3.0585,3.0587,0,0,0,0,0,0,2.9804,2.9829,3.0022,3.003,2.9904,3.0005,3.0022,3.0068,3.0152,3.0162,3.0099,3.0097,3.0229,3.0243,3.0257,3.0373,3.0302,3.0309,3.0314,3.0582,3.0585,3.0588,0,0,0,0,0,0,2.9798,2.9821,3.0016,2.993,2.9955,3.0012,3.0063,3.0072,3.0105,3.0166,3.0176,3.0124,3.0228,3.0246,3.0338,3.0378,3.0313,3.032,3.0579,3.0583,3.0587,3.0605,0,0,0,0,0,0,2.9791,2.9819,2.9857,2.9931,2.996,3.0095,3.0066,3.0076,3.0119,3.0118,3.0192,3.0201,3.0228,3.0326,3.0345,3.0387,3.0326,3.0576,3.0581,3.0586,3.0601,3.0609,3.0616,0,0,0,0,0,2.9781,2.9856,2.9858,2.9882,3.0008,3.0098,3.0114,3.0143,3.0122,3.016,3.0199,3.0199,3.0371,3.0335,3.0357,3.0402,3.0573,3.0579,3.0585,3.0598,3.0608,3.0616,0,0,0,0,0,0,2.9783,2.9866,2.987,2.9971,3.0027,3.0099,3.0147,3.0153,3.0216,3.0212,3.0245,3.0261,3.0351,3.0386,3.0345,3.0498,3.0469,3.048,3.0471,3.0481,3.0489,3.0477,3.0332,0,0,0,0,0,2.9796,2.9863,2.9931,3.0014,3.0042,3.009,3.013,3.0148,3.0207,3.0231,3.0277,3.0333,3.04,3.0443,3.0508,3.0607,3.0622,3.0648,3.0656,3.0662,3.067,3.0723,3.0735,3.0608,3.0608,3.0608,0,0,2.9822,2.9875,2.9915,3.0015,3.0061,3.0128,3.011,3.0182,3.0232,3.0241,3.033,3.0366,3.0431,3.0527,3.0571,3.0558,3.0709,3.0669,3.0674,3.0679,3.073,3.0742,3.0753,3.0612,3.0611,3.0611,0,0,2.9903,2.9951,3.0024,3.0071,3.0141,3.0172,3.019,3.0261,3.0285,3.0375,3.0384,3.0443,3.0558,3.0603,3.0641,3.074,3.0742,3.076,3.0798,3.085,3.086,3.0869,3.0902,3.0914,3.0769,3.0769,3.0769,0,2.9925,3.0028,3.0061,3.0133,3.0176,3.0189,3.0262,3.0306,3.0393,3.0421,3.0407,3.055,3.0595,3.07,3.0724,3.0756,3.0775,3.0751,3.0856,3.0866,3.0874,3.0906,3.0919,3.077,3.077,3.077,3.077,0,3.0052,3.0123,3.0174,3.0258,3.0307,3.038,3.0421,3.0467,3.0481,3.0513,3.0604,3.0659,3.0734,3.0761,3.0775,3.0868,3.0858,3.085,3.0821,3.0887,3.0918,3.093,3.0773,3.0772,3.0772,3.0771,0,0,3.0136,3.0239,3.0256,3.0294,3.0373,3.0428,3.05,3.0575,3.0612,3.0673,3.0733,3.0829,3.0822,3.0865,3.0885,3.093,3.1002,3.0916,3.0918,3.0928,3.1106,3.111,3.1123,3.1005,3.1008,3.101,3.1099,0,3.0224,3.0355,3.0386,3.0497,3.0562,3.0576,3.0638,3.0693,3.0725,3.0784,3.082,3.0887,3.0873,3.0899,3.0945,3.0984,3.1038,3.0978,3.1059,3.1062,3.104,3.114,3.1145,3.1226,3.1112,3.1114,3.1115,0,3.0344,3.0407,3.0524,3.0594,3.0622,3.0678,3.0749,3.0806,3.0867,3.0887,3.0936,3.0951,3.1026,3.0996,3.1098,3.1056,3.1091,3.1115,3.1119,3.1126,3.1091,3.1146,3.1254,3.1265,3.1135,3.1133,3.1132,0,3.039,3.0505,3.059,3.0623,3.0706,3.0745,3.0781,3.0841,3.0883,3.0945,3.0972,3.1041,3.1079,3.1131,3.1164,3.1139,3.1263,3.1236,3.128,3.1279,3.1303,3.13,3.1414,3.133,3.133,3.1329,3.1329,0,3.0484,3.0555,3.0612,3.0664,3.0743,3.0778,3.0855,3.0892,3.0944,3.1002,3.1019,3.1073,3.1114,3.1173,3.12,3.1279,3.1296,3.1313,3.1319,3.131,3.1308,3.1332,3.1326,3.1333,3.1332,3.1331,3.1331,0,3.0548,3.059,3.0683,3.0755,3.0775,3.083,3.089,3.094,3.0974,3.1047,3.1066,3.1118,3.1189,3.1227,3.1316,3.1333,3.1421,3.1425,3.14,3.1402,3.1443,3.1438,3.1575,3.1593,3.1499,3.1499,3.15,0,3.0604,3.0659,3.0737,3.0777,3.0815,3.088,3.0924,3.096,3.1005,3.1079,3.112,3.1192,3.1251,3.1362,3.1407,3.1475,3.1479,3.1522,3.1489,3.1478,3.1476,3.1471,3.1476,3.1527,3.1528,3.1528,3.1529,0,3.0697,3.0715,3.0778,3.0849,3.0901,3.0957,3.1014,3.1046,3.1091,3.114,3.1213,3.1259,3.135,3.142,3.1491,3.1527,3.1535,3.154,3.1553,3.1543,3.1526,3.1533,3.1413,3.1536,3.1535,3.1534,3.1534,3.1534,3.0757,3.0806,3.0869,3.0938,3.0984,3.1036,3.1087,3.1127,3.1189,3.1265,3.1283,3.136,3.1419,3.1515,3.1553,3.1612,3.1604,3.1624,3.1628,3.1632,3.1632,3.1519,3.1626,3.1626,3.1626,3.1625,3.1625,0,3.0849,3.089,3.0954,3.1032,3.1087,3.1092,3.1154,3.1198,3.1266,3.1321,3.1379,3.1462,3.153,3.1581,3.165,3.1688,3.1693,3.1704,3.1701,3.1708,3.1637,3.1618,3.1699,3.1699,3.1699,3.1699,3.1699,3.1699,3.0903,3.0986,3.1011,3.1116,3.1156,3.1232,3.1267,3.1314,3.1358,3.1451,3.1508,3.1541,3.1594,3.1667,3.173,3.1743,3.1766,3.1777,3.179,3.1722,3.1714,3.1706,3.1688,3.1782,3.1783,3.1856,3.1857,3.1857]},{"header":{"parameterUnit":"m.s-1","parameterCategory":1,"la1":30.2991,"la2":30.254,"lo1":-89.0895,"lo2":-89.0444,"dy":0.0017,"dx":0.0017,"nx":28,"ny":28,"refTime":"2024-06-29T03:00:00:Z","depth":0,"parameterNumber":3,"parameterNumberName":"V-component_of_WINDS"},"data":[0,0,0,0,0,0,0,0,0,0,0,0,0,0,0,0,0,0,0,0,0,0,0,0,0,0,0,0,0,0,0,0,0,0,0,0,0,0,0,0,0,0,0,0,0,0,0,0,0,0,0,0,0,0,0,0,0,0,1.8283,1.8285,0,1.8483,1.8486,1.8488,1.8527,1.8525,1.8523,1.8522,1.873,1.8737,1.8744,0,0,0,0,0,0,0,0,0,0,0,0,0,1.7936,1.7942,1.8283,1.8285,1.8288,1.8483,1.8486,1.8489,1.8527,1.8525,1.8523,1.8521,1.8728,1.8736,1.8744,0,0,0,0,0,0,0,0,0,0,0,0,0,1.8106,1.7944,1.8282,1.833,1.8337,1.8483,1.8486,1.8489,1.8527,1.8525,1.8522,1.852,1.8725,1.8735,1.8745,1.8858,0,0,1.8778,1.8782,0,0,0,0,0,0,0,0,1.8097,1.8119,1.8321,1.8327,1.8335,1.8478,1.844,1.8613,1.8528,1.8455,1.8522,1.8519,1.8648,1.8665,1.8708,1.8868,1.8877,1.8779,1.8785,1.879,1.8792,0,0,0,0,0,0,0,1.8085,1.8111,1.8362,1.8324,1.8332,1.8343,1.8364,1.8473,1.8563,1.8461,1.8464,1.8488,1.8651,1.8697,1.8713,1.888,1.8778,1.8788,1.8794,1.8798,1.9144,1.9146,0,0,0,0,0,0,1.8064,1.8101,1.8356,1.8368,1.8207,1.8351,1.8375,1.8434,1.8562,1.8579,1.8489,1.8489,1.8681,1.8701,1.872,1.8862,1.8789,1.8799,1.8805,1.9141,1.9144,1.9147,0,0,0,0,0,0,1.8057,1.8087,1.8348,1.8236,1.827,1.8359,1.8425,1.8439,1.8486,1.8583,1.8599,1.852,1.868,1.8705,1.8824,1.8869,1.8804,1.8814,1.9138,1.9142,1.9146,1.9144,0,0,0,0,0,0,1.8046,1.8084,1.8127,1.8236,1.8275,1.8447,1.8428,1.8445,1.8503,1.8504,1.8616,1.8632,1.868,1.8808,1.8834,1.8883,1.8822,1.9134,1.9139,1.9145,1.9141,1.9148,1.9154,0,0,0,0,0,1.8034,1.8119,1.8129,1.816,1.8331,1.845,1.8472,1.8525,1.8507,1.8552,1.8614,1.8628,1.8859,1.882,1.885,1.8902,1.9131,1.9138,1.9144,1.9138,1.9147,1.9154,0,0,0,0,0,0,1.8014,1.8134,1.8147,1.827,1.8349,1.8456,1.8514,1.8533,1.862,1.8617,1.8679,1.8704,1.8819,1.8872,1.8825,1.9018,1.8994,1.9007,1.8979,1.8989,1.8995,1.8981,1.8831,0,0,0,0,0,1.8024,1.8109,1.821,1.8309,1.8348,1.8424,1.8478,1.8511,1.8596,1.863,1.8701,1.8784,1.8876,1.8935,1.9024,1.9148,1.9173,1.9199,1.9205,1.9211,1.9221,1.9291,1.9304,1.9169,1.9168,1.9168,0,0,1.8045,1.8122,1.8172,1.8307,1.8372,1.846,1.8452,1.8545,1.8612,1.8645,1.8761,1.8816,1.8912,1.9034,1.9091,1.9082,1.9264,1.9219,1.9222,1.923,1.9299,1.9312,1.9323,1.9173,1.9172,1.9171,0,0,1.813,1.8195,1.8285,1.8351,1.8449,1.8499,1.8521,1.8625,1.8663,1.878,1.8806,1.8886,1.9042,1.911,1.9165,1.9274,1.9291,1.9301,1.9337,1.9404,1.9415,1.9425,1.9465,1.9478,1.9311,1.9311,1.9311,0,1.8145,1.8277,1.8329,1.8421,1.848,1.8513,1.8605,1.8666,1.8789,1.883,1.8817,1.9013,1.9081,1.9219,1.9245,1.9288,1.9315,1.9289,1.9409,1.9419,1.9429,1.9468,1.9483,1.9312,1.9312,1.9312,1.9312,0,1.8291,1.8382,1.8443,1.856,1.8626,1.8717,1.8784,1.8844,1.8871,1.8922,1.9041,1.9123,1.9229,1.9264,1.9292,1.9407,1.9398,1.9396,1.9374,1.9442,1.948,1.9495,1.9313,1.9312,1.9312,1.9312,0,0,1.837,1.8514,1.8535,1.8589,1.87,1.8772,1.8865,1.8968,1.9019,1.9103,1.9183,1.9313,1.9313,1.9375,1.9411,1.9469,1.9551,1.9461,1.9464,1.9476,1.9683,1.9685,1.9701,1.9562,1.9565,1.9568,1.9676,0,1.8469,1.8635,1.8684,1.8824,1.891,1.8941,1.9022,1.91,1.915,1.923,1.9286,1.9378,1.9369,1.9407,1.9467,1.9529,1.9594,1.9521,1.9639,1.9642,1.9615,1.972,1.9723,1.982,1.969,1.9693,1.9695,0,1.8607,1.8691,1.884,1.8939,1.8977,1.9049,1.9148,1.9224,1.9312,1.9344,1.9413,1.9443,1.9542,1.9513,1.9651,1.96,1.9651,1.9688,1.9693,1.9708,1.9674,1.9739,1.9853,1.9868,1.9718,1.9716,1.9715,0,1.8651,1.8802,1.8911,1.8955,1.9074,1.9124,1.9176,1.9262,1.932,1.9407,1.9446,1.9542,1.9596,1.967,1.9726,1.9699,1.9859,1.9834,1.989,1.9888,1.9924,1.9921,2.0049,1.9953,1.9953,1.9953,1.9953,0,1.8757,1.8847,1.8932,1.8999,1.9101,1.9156,1.9255,1.9309,1.9385,1.9463,1.9496,1.9569,1.9638,1.972,1.9764,1.9872,1.9895,1.9925,1.9936,1.9923,1.992,1.9959,1.9954,1.9957,1.9956,1.9955,1.9955,0,1.8824,1.8885,1.9005,1.9107,1.9135,1.9206,1.9293,1.936,1.941,1.9509,1.9535,1.9615,1.9714,1.9776,1.9902,1.9932,2.005,2.0058,2.002,2.0026,2.0078,2.0073,2.0237,2.0262,2.0148,2.0149,2.015,0,1.8889,1.8958,1.9067,1.9122,1.9174,1.9261,1.9321,1.9378,1.9439,1.9544,1.9598,1.9698,1.9782,1.9938,2.0008,2.0104,2.0116,2.0166,2.013,2.0115,2.0118,2.0114,2.0121,2.0173,2.0174,2.0174,2.0175,0,1.8997,1.9023,1.9108,1.9203,1.9273,1.9351,1.9429,1.9472,1.9542,1.9609,1.971,1.9774,1.9902,2.0002,2.0104,2.0158,2.0179,2.0185,2.0204,2.0192,2.0167,2.0183,2.0038,2.0182,2.0181,2.0181,2.018,2.018,1.9066,1.913,1.9216,1.9309,1.9373,1.9445,1.9512,1.9571,1.9655,1.9763,1.9791,1.9897,1.9983,2.0122,2.0179,2.0262,2.0256,2.0282,2.0289,2.0295,2.0296,2.0152,2.0281,2.0281,2.0281,2.0281,2.0281,0,1.9177,1.9234,1.9319,1.9426,1.9499,1.951,1.9597,1.9658,1.975,1.9828,1.9909,2.0025,2.0121,2.0198,2.0297,2.035,2.0362,2.0374,2.0372,2.0384,2.0296,2.0271,2.0363,2.0363,2.0362,2.0362,2.0362,2.0362,1.9244,1.9352,1.9388,1.9528,1.9585,1.9688,1.9736,1.9803,1.9865,1.9993,2.0073,2.0121,2.0199,2.0305,2.0394,2.0414,2.045,2.046,2.0482,2.0399,2.039,2.0382,2.0358,2.0467,2.0467,2.0564,2.0565,2.0565]}]]